Time,TemperatureF,DewpointF,PressureIn,WindDirection,WindDirectionDegrees,WindSpeedMPH,WindSpeedGustMPH,Humidity,HourlyPrecipIn,Conditions,Clouds,dailyrainin,SolarRadiationWatts/m^2,SoftwareType,DateUTC
2013-06-09 00:03:00,71.6,70.0,30.07,West,263,0.0,0.0,93,0.00,,,0.00,0,weatherlink.com 1.10,2013-06-09 04:03:00,
2013-06-09 00:18:00,71.6,70.0,30.08,West,263,0.0,0.0,94,0.00,,,0.00,0,weatherlink.com 1.10,2013-06-09 04:18:00,
2013-06-09 00:33:00,71.5,69.0,30.08,West,263,0.0,0.0,93,0.00,,,0.00,0,weatherlink.com 1.10,2013-06-09 04:33:00,
2013-06-09 00:48:00,71.4,69.0,30.08,West,263,0.0,0.0,93,0.00,,,0.00,0,weatherlink.com 1.10,2013-06-09 04:48:00,
2013-06-09 01:03:00,71.3,70.0,30.07,West,263,0.0,0.0,94,0.00,,,0.00,0,weatherlink.com 1.10,2013-06-09 05:03:00,
2013-06-09 01:18:00,71.3,70.0,30.08,West,263,0.0,0.0,94,0.00,,,0.00,0,weatherlink.com 1.10,2013-06-09 05:18:00,
2013-06-09 01:33:00,70.9,69.0,30.08,West,263,0.0,0.0,94,0.00,,,0.00,0,weatherlink.com 1.10,2013-06-09 05:33:00,
2013-06-09 01:48:00,70.6,69.0,30.08,West,263,0.0,0.0,95,0.00,,,0.00,0,weatherlink.com 1.10,2013-06-09 05:48:00,
2013-06-09 02:03:00,70.4,69.0,30.07,West,263,0.0,0.0,95,0.00,,,0.00,0,weatherlink.com 1.10,2013-06-09 06:03:00,
2013-06-09 02:18:00,70.4,69.0,30.07,West,263,0.0,0.0,95,0.00,,,0.00,0,weatherlink.com 1.10,2013-06-09 06:18:00,
2013-06-09 02:33:00,70.2,69.0,30.07,West,263,0.0,0.0,95,0.00,,,0.00,0,weatherlink.com 1.10,2013-06-09 06:33:00,
2013-06-09 02:48:00,70.3,69.0,30.07,West,263,0.0,0.0,96,0.00,,,0.00,0,weatherlink.com 1.10,2013-06-09 06:48:00,
2013-06-09 03:03:00,70.3,69.0,30.07,West,263,0.0,0.0,96,0.00,,,0.00,0,weatherlink.com 1.10,2013-06-09 07:03:00,
2013-06-09 03:18:00,70.5,69.0,30.07,West,263,0.0,0.0,95,0.00,,,0.00,0,weatherlink.com 1.10,2013-06-09 07:18:00,
2013-06-09 03:33:00,70.6,69.0,30.06,West,263,0.0,0.0,95,0.00,,,0.00,0,weatherlink.com 1.10,2013-06-09 07:33:00,
2013-06-09 03:48:00,70.7,69.0,30.06,West,263,0.0,0.0,95,0.00,,,0.00,0,weatherlink.com 1.10,2013-06-09 07:48:00,
2013-06-09 04:03:00,70.6,69.0,30.06,West,263,0.0,0.0,95,0.00,,,0.00,0,weatherlink.com 1.10,2013-06-09 08:03:00,
2013-06-09 04:18:00,70.6,70.0,30.07,West,263,0.0,0.0,96,0.00,,,0.00,0,weatherlink.com 1.10,2013-06-09 08:18:00,
2013-06-09 04:33:00,70.5,69.0,30.07,West,263,1.0,1.0,96,0.00,,,0.00,0,weatherlink.com 1.10,2013-06-09 08:33:00,
2013-06-09 04:48:00,70.6,70.0,30.07,West,263,0.0,0.0,97,0.00,,,0.00,0,weatherlink.com 1.10,2013-06-09 08:48:00,
2013-06-09 05:03:00,70.8,70.0,30.07,West,263,0.0,0.0,97,0.00,,,0.00,0,weatherlink.com 1.10,2013-06-09 09:03:00,
2013-06-09 05:18:00,70.7,70.0,30.08,West,263,0.0,0.0,97,0.00,,,0.00,0,weatherlink.com 1.10,2013-06-09 09:18:00,
2013-06-09 05:33:00,70.4,70.0,30.09,West,263,0.0,0.0,97,0.00,,,0.00,0,weatherlink.com 1.10,2013-06-09 09:33:00,
2013-06-09 05:48:00,70.5,70.0,30.09,West,263,0.0,0.0,98,0.00,,,0.00,0,weatherlink.com 1.10,2013-06-09 09:48:00,
2013-06-09 06:03:00,70.7,70.0,30.09,West,263,0.0,0.0,98,0.00,,,0.00,0,weatherlink.com 1.10,2013-06-09 10:03:00,
2013-06-09 06:18:00,70.4,70.0,30.10,West,263,0.0,0.0,98,0.00,,,0.00,0,weatherlink.com 1.10,2013-06-09 10:18:00,
2013-06-09 06:34:00,70.4,70.0,30.09,West,263,0.0,0.0,98,0.00,,,0.00,12,weatherlink.com 1.10,2013-06-09 10:34:00,
2013-06-09 06:49:00,70.5,70.0,30.10,WSW,238,0.0,0.0,98,0.00,,,0.00,19,weatherlink.com 1.10,2013-06-09 10:49:00,
2013-06-09 07:04:00,70.8,70.0,30.11,WSW,238,0.0,0.0,98,0.00,,,0.00,33,weatherlink.com 1.10,2013-06-09 11:04:00,
2013-06-09 07:19:00,71.2,71.0,30.11,WSW,238,0.0,0.0,98,0.00,,,0.00,47,weatherlink.com 1.10,2013-06-09 11:19:00,
2013-06-09 07:34:00,71.7,71.0,30.10,SW,233,0.0,1.0,98,0.00,,,0.00,60,weatherlink.com 1.10,2013-06-09 11:34:00,
2013-06-09 07:49:00,72.1,72.0,30.11,SW,232,0.0,0.0,98,0.00,,,0.00,69,weatherlink.com 1.10,2013-06-09 11:49:00,
2013-06-09 08:04:00,72.3,72.0,30.11,SW,232,0.0,0.0,98,0.00,,,0.00,81,weatherlink.com 1.10,2013-06-09 12:04:00,
2013-06-09 08:19:00,72.9,72.0,30.12,SW,232,0.0,1.0,98,0.00,,,0.00,308,weatherlink.com 1.10,2013-06-09 12:19:00,
2013-06-09 08:34:00,74.7,74.0,30.12,SW,231,0.0,0.0,98,0.00,,,0.00,478,weatherlink.com 1.10,2013-06-09 12:34:00,
2013-06-09 08:49:00,75.8,74.0,30.12,SW,232,0.0,1.0,95,0.00,,,0.00,167,weatherlink.com 1.10,2013-06-09 12:49:00,
2013-06-09 09:04:00,76.0,74.0,30.12,WSW,258,0.0,0.0,93,0.00,,,0.00,123,weatherlink.com 1.10,2013-06-09 13:04:00,
2013-06-09 09:19:00,75.8,74.0,30.12,WSW,258,0.0,0.0,93,0.00,,,0.00,114,weatherlink.com 1.10,2013-06-09 13:19:00,
2013-06-09 09:34:00,76.3,74.0,30.11,WNW,293,0.0,1.0,92,0.00,,,0.00,181,weatherlink.com 1.10,2013-06-09 13:34:00,
2013-06-09 09:49:00,76.9,75.0,30.11,SSW,198,0.0,1.0,92,0.00,,,0.00,243,weatherlink.com 1.10,2013-06-09 13:49:00,
2013-06-09 10:04:00,78.4,75.0,30.11,SE,135,0.0,1.0,89,0.00,,,0.00,186,weatherlink.com 1.10,2013-06-09 14:04:00,
2013-06-09 10:19:00,77.5,74.0,30.11,SE,135,0.0,0.0,90,0.00,,,0.00,32,weatherlink.com 1.10,2013-06-09 14:19:00,
2013-06-09 10:34:00,76.4,74.0,30.13,WSW,240,0.0,4.0,93,0.05,,,0.05,18,weatherlink.com 1.10,2013-06-09 14:34:00,
2013-06-09 10:49:00,72.7,71.0,30.13,North,350,0.0,6.0,94,0.23,,,0.23,28,weatherlink.com 1.10,2013-06-09 14:49:00,
2013-06-09 11:04:00,71.3,70.0,30.11,NNE,15,0.0,3.0,96,0.36,,,0.36,65,weatherlink.com 1.10,2013-06-09 15:04:00,
2013-06-09 11:19:00,72.4,72.0,30.12,SSE,149,0.0,1.0,97,0.37,,,0.37,403,weatherlink.com 1.10,2013-06-09 15:19:00,
2013-06-09 11:34:00,72.6,72.0,30.12,ESE,120,0.0,3.0,97,0.32,,,0.37,141,weatherlink.com 1.10,2013-06-09 15:34:00,
2013-06-09 11:49:00,75.0,74.0,30.11,East,97,0.0,4.0,97,0.14,,,0.37,422,weatherlink.com 1.10,2013-06-09 15:49:00,
2013-06-09 12:04:00,77.1,75.0,30.11,East,86,0.0,1.0,94,0.01,,,0.37,494,weatherlink.com 1.10,2013-06-09 16:04:00,
2013-06-09 12:19:00,77.8,75.0,30.11,East,92,0.0,8.0,90,0.00,,,0.37,671,weatherlink.com 1.10,2013-06-09 16:19:00,
2013-06-09 12:34:00,77.2,74.0,30.11,East,82,0.0,5.0,88,0.00,,,0.37,972,weatherlink.com 1.10,2013-06-09 16:34:00,
2013-06-09 12:49:00,79.5,75.0,30.10,SE,136,0.0,3.0,85,0.00,,,0.37,1120,weatherlink.com 1.10,2013-06-09 16:49:00,
2013-06-09 13:04:00,80.3,75.0,30.08,SSE,153,0.0,3.0,83,0.00,,,0.37,983,weatherlink.com 1.10,2013-06-09 17:04:00,
2013-06-09 13:19:00,81.6,76.0,30.09,East,81,0.0,6.0,82,0.00,,,0.37,969,weatherlink.com 1.10,2013-06-09 17:19:00,
2013-06-09 13:34:00,81.7,76.0,30.07,South,170,0.0,5.0,83,0.00,,,0.37,979,weatherlink.com 1.10,2013-06-09 17:34:00,
2013-06-09 13:49:00,82.5,76.0,30.07,East,101,7.0,8.0,80,0.00,,,0.37,1055,weatherlink.com 1.10,2013-06-09 17:49:00,
2013-06-09 14:04:00,82.0,75.0,30.07,SE,134,0.0,6.0,79,0.00,,,0.37,160,weatherlink.com 1.10,2013-06-09 18:04:00,
2013-06-09 14:19:00,78.5,75.0,30.05,East,95,0.0,3.0,89,0.02,,,0.39,142,weatherlink.com 1.10,2013-06-09 18:19:00,
2013-06-09 14:35:00,76.7,75.0,30.04,ESE,106,0.0,3.0,94,0.03,,,0.40,229,weatherlink.com 1.10,2013-06-09 18:35:00,
2013-06-09 14:50:00,77.5,76.0,30.03,ESE,102,0.0,1.0,94,0.03,,,0.40,102,weatherlink.com 1.10,2013-06-09 18:50:00,
2013-06-09 15:05:00,77.3,76.0,30.03,ENE,78,0.0,1.0,94,0.03,,,0.40,21,weatherlink.com 1.10,2013-06-09 19:05:00,
2013-06-09 15:20:00,75.4,73.0,30.09,West,267,3.0,18.0,91,0.13,,,0.53,0,weatherlink.com 1.10,2013-06-09 19:20:00,
2013-06-09 15:35:00,70.0,68.0,30.08,WSW,246,0.0,17.0,94,0.70,,,1.10,12,weatherlink.com 1.10,2013-06-09 19:35:00,
2013-06-09 15:50:00,69.7,69.0,30.09,WSW,246,0.0,1.0,96,0.78,,,1.18,49,weatherlink.com 1.10,2013-06-09 19:50:00,
2013-06-09 16:05:00,70.2,69.0,30.11,WSW,246,0.0,1.0,97,0.78,,,1.18,130,weatherlink.com 1.10,2013-06-09 20:05:00,
2013-06-09 16:20:00,71.1,71.0,30.10,ESE,118,0.0,1.0,98,0.55,,,1.18,65,weatherlink.com 1.10,2013-06-09 20:20:00,
2013-06-09 16:35:00,71.1,71.0,30.09,East,99,0.0,3.0,98,0.09,,,1.20,65,weatherlink.com 1.10,2013-06-09 20:35:00,
2013-06-09 16:50:00,71.0,70.0,30.09,SE,137,0.0,1.0,98,0.04,,,1.22,60,weatherlink.com 1.10,2013-06-09 20:50:00,
2013-06-09 17:05:00,70.3,69.0,30.09,SE,142,0.0,1.0,97,0.20,,,1.38,33,weatherlink.com 1.10,2013-06-09 21:05:00,
2013-06-09 17:20:00,70.3,70.0,30.08,SE,125,0.0,1.0,98,0.27,,,1.45,72,weatherlink.com 1.10,2013-06-09 21:20:00,
2013-06-09 17:35:00,70.5,70.0,30.07,ESE,114,0.0,0.0,98,0.25,,,1.45,54,weatherlink.com 1.10,2013-06-09 21:35:00,
2013-06-09 17:50:00,70.4,70.0,30.06,ESE,112,0.0,1.0,98,0.23,,,1.46,32,weatherlink.com 1.10,2013-06-09 21:50:00,
2013-06-09 18:05:00,70.5,70.0,30.06,ESE,114,0.0,1.0,98,0.09,,,1.48,25,weatherlink.com 1.10,2013-06-09 22:05:00,
2013-06-09 18:20:00,70.4,70.0,30.04,ESE,114,0.0,1.0,98,0.06,,,1.51,14,weatherlink.com 1.10,2013-06-09 22:20:00,
2013-06-09 18:35:00,70.2,70.0,30.04,ESE,114,0.0,1.0,98,0.10,,,1.55,49,weatherlink.com 1.10,2013-06-09 22:35:00,
2013-06-09 18:50:00,70.1,70.0,30.05,ESE,113,0.0,0.0,98,0.09,,,1.55,39,weatherlink.com 1.10,2013-06-09 22:50:00,
2013-06-09 19:05:00,70.2,70.0,30.05,ESE,115,0.0,0.0,98,0.07,,,1.55,30,weatherlink.com 1.10,2013-06-09 23:05:00,
2013-06-09 19:20:00,70.1,70.0,30.07,ESE,115,0.0,0.0,98,0.03,,,1.55,7,weatherlink.com 1.10,2013-06-09 23:20:00,
2013-06-09 19:35:00,70.2,70.0,30.07,ESE,115,0.0,0.0,98,0.01,,,1.56,0,weatherlink.com 1.10,2013-06-09 23:35:00,
2013-06-09 19:50:00,70.3,70.0,30.07,ESE,106,0.0,0.0,98,0.03,,,1.58,0,weatherlink.com 1.10,2013-06-09 23:50:00,
2013-06-09 20:05:00,70.3,70.0,30.07,ESE,106,0.0,1.0,98,0.07,,,1.62,0,weatherlink.com 1.10,2013-06-10 00:05:00,
2013-06-09 20:20:00,70.4,70.0,30.07,ESE,106,0.0,0.0,98,0.09,,,1.64,0,weatherlink.com 1.10,2013-06-10 00:20:00,
2013-06-09 20:35:00,70.4,70.0,30.08,ESE,106,0.0,0.0,98,0.08,,,1.64,0,weatherlink.com 1.10,2013-06-10 00:35:00,
2013-06-09 20:50:00,70.4,70.0,30.08,ESE,106,0.0,0.0,98,0.07,,,1.65,0,weatherlink.com 1.10,2013-06-10 00:50:00,
2013-06-09 21:05:00,70.5,70.0,30.09,ESE,106,0.0,0.0,99,0.09,,,1.71,0,weatherlink.com 1.10,2013-06-10 01:05:00,
2013-06-09 21:20:00,70.4,70.0,30.09,ESE,106,0.0,0.0,99,0.07,,,1.71,0,weatherlink.com 1.10,2013-06-10 01:20:00,
2013-06-09 21:35:00,70.4,70.0,30.08,ESE,106,0.0,0.0,99,0.15,,,1.79,0,weatherlink.com 1.10,2013-06-10 01:35:00,
2013-06-09 21:50:00,70.5,70.0,30.08,ESE,106,0.0,1.0,99,0.17,,,1.82,0,weatherlink.com 1.10,2013-06-10 01:50:00,
2013-06-09 22:05:00,70.7,70.0,30.08,ESE,113,0.0,0.0,99,0.11,,,1.82,0,weatherlink.com 1.10,2013-06-10 02:05:00,
2013-06-09 22:20:00,70.8,71.0,30.07,South,175,0.0,2.0,99,0.11,,,1.83,0,weatherlink.com 1.10,2013-06-10 02:20:00,
2013-06-09 22:35:00,70.8,71.0,30.08,South,175,0.0,0.0,99,0.04,,,1.83,0,weatherlink.com 1.10,2013-06-10 02:35:00,
2013-06-09 22:50:00,70.8,71.0,30.09,South,178,0.0,1.0,99,0.01,,,1.83,0,weatherlink.com 1.10,2013-06-10 02:50:00,
2013-06-09 23:05:00,71.1,71.0,30.08,South,178,0.0,1.0,99,0.01,,,1.83,0,weatherlink.com 1.10,2013-06-10 03:05:00,
2013-06-09 23:20:00,71.3,71.0,30.08,South,185,0.0,0.0,99,0.01,,,1.84,0,weatherlink.com 1.10,2013-06-10 03:20:00,
2013-06-09 23:35:00,71.4,71.0,30.07,South,186,0.0,1.0,99,0.01,,,1.84,0,weatherlink.com 1.10,2013-06-10 03:35:00,
2013-06-09 23:50:00,71.6,71.0,30.08,SW,214,0.0,4.0,99,0.02,,,1.85,0,weatherlink.com 1.10,2013-06-10 03:50:00,